La Nava - Corral De Ayllón Airport

Jump to: basic info | weather | comments

Related pages: nearby airports | nearby navaids | notams | map

Basic information (top)

Codes: LECA
Location: lon 41.410801, lat -3.448330, elev 3,280 ft / 1,000 m msl
Status: small_airport

Weather (top)

Current conditions for Torrejón Airport 55nm (102km) S (rec'd 2014/10/25 16:00Z):

LETO 251600Z VRB02KT CAVOK 27/06 Q1021 NOSIG

Airport forecast for Torrejón Airport 55nm (102km) S (rec'd 2014/10/25 12:32Z):

TAF LEBZ 251100Z 2512/2612 07003KT CAVOK TX26/2515Z TN12/2607Z= TAF LETO 251100Z 2512/2612 VRB04KT CAVOK TX26/2514Z TN09/2607Z

Latest comments (top)

No comments yet for La Nava - Corral De Ayllón Airport

More... (top)

See also NOTAMs and nearby airports and navaids, or visit the La Nava - Corral De Ayllón Airport page at the main OurAirports website..